Weather History for KBMI - October, 2013

Change the Weather History Date:

Tuesday, October 22, 2013

  Actual Average Record
Temperature  
Mean Temperature 37 °F -  
Max Temperature 43 °F 80 °F 80 °F (1978)
Min Temperature 30 °F 58 °F 28 °F (1997)
Degree Days  
Heating Degree Days 28    
Moisture  
Dew Point 34 °F    
Average Humidity 88    
Maximum Humidity 100    
Minimum Humidity 73    
Precipitation  
Precipitation 0.54 in - - ()
Sea Level Pressure  
Sea Level Pressure 29.97 in    
Wind  
Wind Speed 8 mph (SE)    
Max Wind Speed 18 mph    
Max Gust Speed 24 mph    
Visibility 7 miles    
Events Rain , Snow    
Averages and records for this station are not official NWS values.
T = Trace of Precipitation, MM = Missing Value Source: NWS Daily Summary

Daily Weather History Graph

Daily Weather History Graph

Search for Another Location

Airport or City:

Trip Planner

Search our weather history database for the weather conditions in past years. The results will help you decide how hot, cold, wet, or windy it might be!

Date:

Astronomy

Oct. 22, 2013 Rise Set
Actual Time 7:14 AM CDT 6:05 PM CDT
Civil Twilight 6:46 AM CDT 6:32 PM CDT
Nautical Twilight 6:14 AM CDT 7:04 PM CDT
Astronomical Twilight 5:43 AM CDT 7:36 PM CDT
Moon 8:44 PM CDT (10/22) 10:43 AM CDT (10/22)
Length of Visible Light 11h 46m
Length of Day
10h 50m
Waning Gibbous, 86% of the Moon is Illuminated
Oct 22
Waning Gibbous
Oct 26
Last Quarter
Nov 3
New
Nov 9
First Quarter
Nov 17
Full

Hourly Weather History & Observations

Time (CDT) Temp. Windchill Dew Point Humidity Pressure Visibility Wind Dir Wind Speed Gust Speed Precip Events Conditions
12:56 AM 32.0 °F 24.8 °F 24.1 °F 73% 30.06 in 10.0 mi SW 8.1 mph - N/A   Clear
1:56 AM 31.1 °F 25.4 °F 25.2 °F 79% 30.06 in 10.0 mi SW 5.8 mph - N/A   Clear
2:56 AM 30.0 °F 25.2 °F 25.2 °F 82% 30.06 in 10.0 mi SW 4.6 mph - N/A   Clear
3:56 AM 30.0 °F 24.1 °F 25.2 °F 82% 30.06 in 10.0 mi SW 5.8 mph - 0.00 in   Clear
4:56 AM 30.0 °F 26.5 °F 25.2 °F 82% 30.05 in 10.0 mi SW 3.5 mph - N/A   Clear
5:56 AM 31.1 °F 27.7 °F 27.1 °F 85% 30.06 in 10.0 mi SSW 3.5 mph - N/A   Scattered Clouds
6:56 AM 31.1 °F 26.4 °F 26.1 °F 82% 30.05 in 10.0 mi SSW 4.6 mph - N/A   Mostly Cloudy
7:56 AM 32.9 °F 29.8 °F 30.0 °F 89% 30.05 in 10.0 mi South 3.5 mph - N/A   Overcast
8:56 AM 36.0 °F 30.3 °F 32.0 °F 86% 30.04 in 10.0 mi South 6.9 mph - 0.00 in   Overcast
9:56 AM 39.9 °F 36.7 °F 34.0 °F 79% 30.02 in 10.0 mi Variable 4.6 mph - 0.00 in   Mostly Cloudy
10:56 AM 43.0 °F 38.2 °F 36.0 °F 76% 30.00 in 8.0 mi SE 8.1 mph - 0.00 in Rain Light Rain
11:56 AM 43.0 °F 38.8 °F 34.9 °F 73% 29.97 in 10.0 mi SE 6.9 mph - 0.00 in   Overcast
12:21 PM 44.6 °F 42.2 °F 37.4 °F 76% 29.94 in 6.0 mi SE 4.6 mph - 0.00 in Rain Light Rain
12:56 PM 43.0 °F 38.2 °F 37.9 °F 82% 29.95 in 6.0 mi SSE 8.1 mph - 0.02 in Rain Light Rain
1:56 PM 43.0 °F 37.2 °F 39.9 °F 89% 29.92 in 4.0 mi South 10.4 mph - 0.09 in Rain Light Rain
2:56 PM 41.9 °F 35.9 °F 38.8 °F 89% 29.89 in 4.0 mi SE 10.4 mph - 0.06 in Rain Light Rain
3:19 PM 42.8 °F 36.6 °F 39.2 °F 87% 29.85 in 3.0 mi ESE 11.5 mph - 0.03 in Rain Light Rain
3:56 PM 41.9 °F 37.5 °F 39.9 °F 93% 29.89 in 3.0 mi ESE 6.9 mph - 0.05 in Rain Light Rain
4:56 PM 41.0 °F 35.2 °F 41.0 °F 100% 29.88 in 3.0 mi East 9.2 mph - 0.12 in Rain Light Rain
5:56 PM 41.0 °F 35.2 °F 39.9 °F 96% 29.89 in 5.0 mi ENE 9.2 mph - 0.11 in Rain Rain
6:11 PM 39.2 °F 32.5 °F 39.2 °F 100% 29.86 in 4.0 mi NE 10.4 mph - 0.02 in Rain Light Rain
6:56 PM 37.9 °F 28.2 °F 37.9 °F 100% 29.91 in 6.0 mi NE 18.4 mph - 0.05 in Rain Light Rain
7:17 PM 37.4 °F 28.2 °F 35.6 °F 93% 29.88 in 7.0 mi NNE 16.1 mph 24.2 mph 0.00 in Rain Light Rain
7:56 PM 34.0 °F 24.2 °F 34.0 °F 100% 29.94 in 4.0 mi NE 15.0 mph - 0.03 in Snow Light Snow
8:56 PM 34.0 °F 25.0 °F 34.0 °F 100% 29.96 in 3.0 mi NNE 12.7 mph - 0.01 in Snow Light Snow
9:56 PM 36.0 °F 27.5 °F 34.9 °F 96% 29.97 in 6.0 mi North 12.7 mph - 0.00 in   Overcast
10:56 PM 36.9 °F 28.7 °F 36.0 °F 97% 29.97 in 5.0 mi North 12.7 mph - N/A   Overcast
11:30 PM 37.4 °F 29.8 °F 35.6 °F 93% 29.95 in 5.0 mi NNW 11.5 mph - N/A   Overcast
11:56 PM 36.9 °F 29.1 °F 36.0 °F 97% 29.98 in 7.0 mi NNW 11.5 mph - N/A   Overcast